Location: River House Observatory
(37.8577°N, 76.3548°W)
Time: 13:52:48
(UTC-04:00)

NOSS 3-1 (C) - Visible Passes

Search period start: 25 July 2016 00:00
Search period end: 04 August 2016 00:00
Orbit: 847 x 1362 km, 63.4° (Epoch: 23 July)

Date Brightness Start Highest point End Pass type
(mag) Time Alt. Az. Time Alt. Az. Time Alt. Az.
25 Jul 4.2 01:23:28 10° NW 01:30:26 58° W 01:30:26 58° W visible
25 Jul 5.5 22:48:02 10° NNW 22:53:59 25° NE 22:58:47 15° E visible
26 Jul 3.9 00:38:05 10° NNW 00:45:49 88° WSW 00:46:09 83° SSE visible
26 Jul 5.8 02:31:04 10° WNW 02:33:31 16° W 02:33:31 16° W visible
26 Jul 5.8 22:03:17 10° N 22:08:04 18° NE 22:13:06 10° ENE visible
26 Jul 4.2 23:52:52 10° NNW 00:00:26 64° NE 00:01:56 55° E visible
27 Jul 5.2 01:44:32 10° NW 01:49:18 27° W 01:49:18 27° W visible
27 Jul 6.0 21:18:50 10° N 21:21:57 13° NNE 21:25:11 10° NE visible
27 Jul 4.7 23:07:47 10° NNW 23:14:57 43° NE 23:17:46 33° E visible
28 Jul 4.6 00:58:40 10° NW 01:05:09 45° W 01:05:09 45° W visible
28 Jul 5.2 22:22:50 10° NNW 22:29:17 30° NE 22:33:40 19° E visible
29 Jul 4.0 00:13:08 10° NW 00:20:50 72° WSW 00:21:03 71° SW visible
29 Jul 6.1 02:07:32 10° W 02:08:26 11° W 02:08:26 11° W visible
29 Jul 5.6 21:37:59 10° N 21:43:28 21° NE 21:49:18 10° E visible
29 Jul 4.0 23:27:50 10° NNW 23:35:32 78° ENE 23:37:00 63° ESE visible
30 Jul 5.5 01:20:07 10° WNW 01:24:23 22° W 01:24:23 22° W visible
30 Jul 5.9 20:53:21 10° N 20:57:27 15° NNE 21:01:46 10° ENE visible
30 Jul 4.4 22:42:41 10° NNW 22:50:06 53° NE 22:53:00 38° ESE visible
31 Jul 4.9 00:33:57 10° NW 00:40:23 36° WSW 00:40:23 36° WSW visible
31 Jul 4.9 21:57:40 10° NNW 22:04:32 37° NE 22:09:03 21° E visible
31 Jul 4.2 23:48:16 10° NW 23:55:49 57° WSW 23:56:26 56° SW visible
01 Aug 5.3 21:12:45 10° NNW 21:18:48 26° NE 21:25:08 10° E visible
01 Aug 4.0 23:02:51 10° NW 23:10:35 85° WSW 23:12:32 57° SSE visible
02 Aug 5.8 00:56:01 10° WNW 00:59:56 17° W 00:59:56 17° W visible
02 Aug 4.2 22:17:37 10° NNW 22:25:14 66° NE 22:28:41 37° ESE visible
03 Aug 5.2 00:09:22 10° NW 00:15:49 28° WSW 00:16:05 28° WSW visible
03 Aug 4.6 21:32:32 10° NNW 21:39:44 45° NE 21:44:54 21° ESE visible
03 Aug 4.6 23:23:28 10° NW 23:30:46 45° WSW 23:32:18 41° SW visible
